Regional Weather Roundup
Issued by NWS Cleveland, OH

Home | Current Version | Previous Version | Text Only | Print | Product List | Glossary Off
Versions: 1 2 3 4 5 6 7 8 9 10 11 12 13 14 15 16 17 18 19 20 21 22 23 24 25 26 27 28 29 30 31 32 33 34 35 36 37 38 39 40 41 42 43 44 45 46 47 48 49 50

181
ASUS41 KCLE 182210
RWRCLE
OHIO REGIONAL WEATHER ROUNDUP
NATIONAL WEATHER SERVICE WILMINGTON, OH
500 PM EST SAT NOV 18 2017

NOTE: "FAIR" INDICATES FEW OR NO CLOUDS BELOW 12,000 FEET WITH NO
SIGNIFICANT WEATHER AND/OR OBSTRUCTIONS TO VISIBILITY.

OHZ001>008-015>018-024>027-034-035-043-044-182300-
   NORTHWEST OHIO

CITY           SKY/WX    TMP DP  RH WIND       PRES   REMARKS
DEFIANCE       LGT RAIN  46  43  89 N16G24    29.27R FOG
FINDLAY        RAIN      55  52  89 W16G22    29.18R FOG
TOLEDO EXPRESS LGT RAIN  46  46 100 N16G28    29.22R FOG
TOLEDO EXEC    CLOUDY    48  47  96 N13G21    29.22R FOG
LIMA           NOT AVBL
$$

OHZ009>014-019>023-028>033-038-089-182300-
   NORTHEAST OHIO

CITY           SKY/WX    TMP DP  RH WIND       PRES   REMARKS
CLE-HOPKINS    RAIN      53  50  89 S24       29.20F
CLE-LAKEFRONT  LGT RAIN  52  49  89 S25G33    29.15F FOG
CUY CO. ARPT   LGT RAIN  54  50  87 S16G25    29.19F FOG
LORAIN-ELYRIA  RAIN      50  44  80 S21       29.19F
ASHTABULA      RAIN      49  48  97 S16       29.25F FOG
AKRON-CANTON   CLOUDY    51  46  83 S16       29.24F
WOOSTER        HVY RAIN  50  49  96 W9        29.28R FOG
MANSFIELD      RAIN      56  55  97 SW16      29.23F
YOUNGSTOWN     LGT RAIN  48  46  93 SE10      29.28F FOG
$$

OHZ042-051>053-060>062-070>072-077>081-182300-
  SOUTHWEST OHIO

CITY           SKY/WX    TMP DP  RH WIND       PRES   REMARKS
CINC-COVINGTON HVY RAIN  61  61 100 W21       29.27S FOG
CINC-LUNKEN    HVY RAIN  63  61  93 SW18G31   29.28S FOG
HAMILTON       LGT RAIN  63  61  93 SW12G18   29.25F FOG
DAYTON         RAIN      60  60 100 S24G33    29.22F FOG
WRIGHT-PAT AFB RAIN      63  63 100 SW18G30   29.22S FOG
DAYTON GENERAL HVY RAIN  61  58  90 SW17G26   29.22F FOG
WILMINGTON     CLOUDY    63  57  81 S24G35    29.24F
$$

OHZ036-037-039>041-045>050-054>059-063>069-073>076-082>088-182300-
  CENTRAL AND SOUTHEAST OHIO

CITY           SKY/WX    TMP DP  RH WIND       PRES   REMARKS
COLUMBUS       LGT RAIN  62  57  83 S14G26    29.25F
OSU AIRPORT    CLOUDY    63  58  83 SW20G31   29.23F
BOLTON FIELD   CLOUDY    63  57  82 SW21G31   29.25F
RICKENBACK AFB CLOUDY    63  55  77 SW22G30   29.26F
NEWARK         LGT RAIN  65  54  67 SW21G32   29.25F
MARION         RAIN      56  53  90 SW14G21   29.22F FOG
LANCASTER      CLOUDY    65  55  70 SW18G35   29.28F
ZANESVILLE     CLOUDY    65  52  62 SW13G30   29.27F
NEW PHILLY     CLOUDY    57  50  77 S7        29.27F
$$




USA.gov is the U.S. government's official web portal to all federal, state and local government web resources and services.